FW0229 Weather Reports


time (UTC)temp
C
wind
direction
speed
KPH
gust
KPH
rain 1hr
cm
rain 24hr
cm
rain mn
cm
humidity
%
barometer
mb
20190418131017 18 0.0 0.0 0.00 0.23 0.00 75 1016.9
20190418130016 18 0.0 0.0 0.00 0.23 0.00 75 1017.0
20190418125017 17 0.0 0.0 0.00 0.23 0.00 75 1016.9
20190418124017 17 0.0 0.0 0.00 0.23 0.00 76 1016.9
20190418123017 17 135 1.6 4.8 0.00 0.23 0.00 76 1017.1
20190418122019 17 112 3.2 8.0 0.00 0.23 0.00 77 1016.8
20190418121017 17 202 1.6 6.4 0.00 0.23 0.00 77 1016.7
20190418120016 16 0.0 1.6 0.00 0.23 0.00 77 1016.6
20190418115017 16 157 1.6 8.0 0.00 0.23 0.00 78 1016.4
20190418114017 16 0.0 4.8 0.00 0.23 0.00 78 1016.3
20190418113017 16 157 1.6 6.4 0.00 0.23 0.00 79 1016.2
20190418112017 16 0.0 0.0 0.00 0.23 0.00 79 1016.0
20190418111017 16 0.0 0.0 0.00 0.23 0.00 80 1016.0
20190418110016 16 0.0 0.0 0.00 0.23 0.00 80 1015.6
20190418105016 16 0.0 0.0 0.00 0.23 0.00 80 1015.7
20190418104017 16 0.0 0.0 0.00 0.23 0.00 81 1015.5
20190418103016 16 112 1.6 6.4 0.00 0.23 0.00 82 1015.3
20190418102017 16 0.0 4.8 0.00 0.23 0.00 83 1015.3
20190418101019 16 0.0 4.8 0.00 0.23 0.00 84 1015.3
20190418100016 16 0.0 0.0 0.00 0.23 0.00 84 1015.3
20190418095016 16 0.0 4.8 0.00 0.23 0.00 84 1015.1
20190418094016 16 0.0 0.0 0.00 0.23 0.00 84 1015.2
20190418093016 16 0.0 1.6 0.00 0.23 0.00 83 1015.3
20190418092016 16 0.0 3.2 0.00 0.23 0.00 82 1015.3
20190418091016 16 0.0 3.2 0.00 0.23 0.00 81 1015.2
20190418090016 16 0.0 4.8 0.00 0.23 0.00 80 1015.1
20190418085016 16 0.0 1.6 0.00 0.23 0.00 80 1015.3
20190418084016 16 0.0 1.6 0.00 0.23 0.00 80 1015.3
20190418083016 16 0.0 1.6 0.00 0.23 0.00 81 1015.4
20190418082016 16 0.0 1.6 0.00 0.23 0.00 80 1015.6
20190418081016 16 0.0 3.2 0.00 0.23 0.00 80 1015.6
20190418080016 16 0.0 1.6 0.00 0.23 0.00 81 1015.7
20190418075016 16 0.0 1.6 0.00 0.23 0.00 81 1015.8
20190418074016 16 0.0 0.0 0.00 0.23 0.00 82 1015.7
20190418073016 16 0.0 3.2 0.00 0.23 0.00 79 1015.8
20190418072016 16 0.0 1.6 0.00 0.23 0.00 79 1015.7
20190418071016 17 0.0 0.0 0.00 0.23 0.00 76 1015.8
20190418070016 17 0.0 3.2 0.00 0.23 0.00 75 1015.8
20190418065016 17 0.0 4.8 0.00 0.23 0.00 75 1015.8
20190418064016 17 0.0 0.0 0.00 0.23 0.00 75 1016.0
20190418063016 17 0.0 4.8 0.00 0.23 0.00 72 1016.1
20190418062016 18 0.0 6.4 0.00 0.23 0.00 71 1016.1
20190418061016 18 0.0 6.4 0.00 0.23 0.00 70 1016.0
20190418060016 18 112 1.6 4.8 0.00 0.23 0.00 69 1016.1
20190418055016 18 135 1.6 4.8 0.00 0.23 0.00 68 1016.1
20190418054016 18 157 1.6 8.0 0.00 0.23 0.00 67 1016.3
20190418053016 19 180 1.6 6.4 0.00 0.23 0.00 66 1016.6
20190418052016 19 112 1.6 4.8 0.00 0.23 0.00 65 1016.5
20190418051016 19 112 1.6 6.4 0.00 0.23 0.00 64 1016.4
20190418050016 20 202 1.6 6.4 0.00 0.23 0.00 63 1016.4
20190418045016 20 112 1.6 4.8 0.00 0.23 0.00 63 1016.4
20190418044016 20 112 1.6 6.4 0.00 0.23 0.00 62 1016.4
20190418043015 20 135 1.6 4.8 0.00 0.23 0.00 62 1016.4
20190418042016 20 112 1.6 4.8 0.00 0.23 0.00 60 1016.3
20190418041016 20 135 1.6 8.0 0.00 0.23 0.00 59 1016.3
20190418040020 20 112 1.6 8.0 0.00 0.23 0.00 59 1016.4
20190418035017 21 112 1.6 6.4 0.00 0.23 0.23 59 1016.6
20190418034016 21 157 3.2 9.7 0.00 0.23 0.23 59 1016.6
20190418033016 20 0.0 3.2 0.00 0.23 0.23 59 1016.5
20190418032016 20 180 1.6 6.4 0.00 0.23 0.23 59 1016.4
20190418031016 20 0.0 3.2 0.00 0.23 0.23 58 1016.5
20190418030016 21 0.0 1.6 0.00 0.23 0.23 58 1016.5
20190418025017 21 0.0 3.2 0.00 0.23 0.23 56 1016.5
20190418024017 21 0.0 4.8 0.00 0.23 0.23 56 1016.5
20190418023016 21 135 1.6 4.8 0.00 0.23 0.23 56 1016.8
20190418022016 21 0.0 3.2 0.00 0.23 0.23 56 1016.8
20190418021016 21 0.0 1.6 0.00 0.23 0.23 55 1016.9
20190418020016 21 0.0 1.6 0.00 0.23 0.23 55 1016.9
20190418015016 21 0.0 1.6 0.00 0.23 0.23 53 1016.7
20190418014016 21 0.0 3.2 0.00 0.23 0.23 53 1016.8
20190418013016 21 0.0 0.0 0.00 0.23 0.23 52 1016.7
20190418012016 21 0.0 0.0 0.00 0.23 0.23 52 1016.7
20190418011016 21 0.0 0.0 0.00 0.23 0.23 52 1016.5
20190418010016 22 0.0 1.6 0.00 0.23 0.23 52 1016.5
20190418005016 22 0.0 1.6 0.00 0.23 0.23 52 1016.3
20190418004016 21 0.0 0.0 0.00 0.23 0.23 57 1016.2
20190418003017 22 0.0 0.0 0.00 0.23 0.23 54 1016.0
20190418002016 22 0.0 0.0 0.10 0.23 0.23 52 1016.0
20190418001016 23 0.0 1.6 0.23 0.23 0.23 49 1016.1
20190418000017 23 0.0 1.6 0.23 0.23 0.23 46 1016.1
20190417235016 23 0.0 3.2 0.23 0.23 0.23 45 1016.0
20190417234016 23 0.0 0.0 0.23 0.23 0.23 44 1016.0
20190417233016 24 0.0 1.6 0.23 0.23 0.23 43 1015.7
20190417232016 24 0.0 1.6 0.13 0.13 0.13 43 1015.8
20190417231016 25 0.0 4.8 0.00 0.00 0.00 40 1015.7
20190417230016 25 0.0 3.2 0.00 0.00 0.00 39 1015.7
20190417225016 25 0.0 1.6 0.00 0.00 0.00 39 1015.6
20190417224016 25 0.0 1.6 0.00 0.00 0.00 40 1015.5
20190417223016 25 0.0 0.0 0.00 0.00 0.00 41 1015.5
20190417222016 26 0.0 0.0 0.00 0.00 0.00 37 1015.6
20190417221016 26 0.0 1.6 0.00 0.00 0.00 39 1015.6
20190417220016 26 0.0 4.8 0.00 0.00 0.00 36 1015.8
20190417215019 26 0.0 4.8 0.00 0.00 0.00 36 1015.8
20190417214016 26 135 1.6 4.8 0.00 0.00 0.00 34 1015.8
20190417213016 26 225 1.6 4.8 0.00 0.00 0.00 34 1015.8
20190417212016 26 225 1.6 3.2 0.00 0.00 0.00 34 1015.7
20190417211016 26 0.0 3.2 0.00 0.00 0.00 36 1015.8
20190417210016 26 0.0 3.2 0.00 0.00 0.00 36 1015.8
20190417205016 27 112 1.6 3.2 0.00 0.00 0.00 35 1016.0
20190417204016 27 135 1.6 8.0 0.00 0.00 0.00 33 1015.9
20190417203016 27 180 1.6 4.8 0.00 0.00 0.00 34 1016.0
20190417202059 27 202 1.6 6.4 0.00 0.00 0.00 35 1016.1
20190417201016 27 202 3.2 11.3 0.00 0.00 0.00 32 1016.2
20190417200015 27 247 1.6 6.4 0.00 0.00 0.00 32 1016.5
20190417195016 27 247 1.6 6.4 0.00 0.00 0.00 34 1016.6
20190417194016 27 90 1.6 4.8 0.00 0.00 0.00 34 1016.7
20190417193016 27 112 3.2 11.3 0.00 0.00 0.00 33 1016.9
20190417192016 27 112 1.6 6.4 0.00 0.00 0.00 34 1016.9
20190417191015 26 0.0 4.8 0.00 0.00 0.00 37 1017.0
20190417190016 27 0.0 0.0 0.00 0.00 0.00 35 1017.0
20190417185016 27 0.0 0.0 0.00 0.00 0.00 36 1017.1
20190417184015 27 0.0 0.0 0.00 0.00 0.00 36 1017.1
20190417183016 27 0.0 0.0 0.00 0.00 0.00 34 1017.2
20190417182016 26 0.0 0.0 0.00 0.00 0.00 35 1017.4
20190417181015 27 0.0 0.0 0.00 0.00 0.00 35 1017.7
20190417180021 27 0.0 0.0 0.00 0.00 0.00 36 1018.1
20190417175015 27 0.0 0.0 0.00 0.00 0.00 35 1018.2
20190417174016 27 0.0 0.0 0.00 0.00 0.00 36 1018.2
20190417173015 26 0.0 0.0 0.00 0.00 0.00 37 1018.3
20190417172015 26 0.0 0.0 0.00 0.00 0.00 39 1018.4
20190417171016 26 0.0 0.0 0.00 0.00 0.00 41 1018.7
20190417170015 25 0.0 0.0 0.00 0.00 0.00 40 1018.9
20190417165015 25 0.0 0.0 0.00 0.00 0.00 44 1019.1
20190417164015 25 0.0 0.0 0.00 0.00 0.00 44 1019.2
20190417163031 25 0.0 0.0 0.00 0.00 0.00 46 1019.3
20190417162015 25 0.0 0.0 0.00 0.00 0.00 46 1019.3
20190417161015 23 0.0 0.0 0.00 0.00 0.00 47 1019.4
20190417160015 23 0.0 0.0 0.00 0.00 0.00 47 1019.4
20190417155015 23 0.0 0.0 0.00 0.00 0.00 49 1019.5
20190417154018 23 0.0 3.2 0.00 0.00 0.00 48 1019.6
20190417153015 22 0.0 0.0 0.00 0.00 0.00 51 1019.6
20190417152015 22 0.0 0.0 0.00 0.00 0.00 51 1019.6
20190417151015 21 0.0 0.0 0.00 0.00 0.00 51 1019.7
20190417150015 21 0.0 0.0 0.00 0.00 0.00 53 1019.7
20190417145015 20 0.0 0.0 0.00 0.00 0.00 54 1019.6
20190417144015 19 180 1.6 4.8 0.00 0.00 0.00 55 1019.6
20190417143015 19 0.0 0.0 0.00 0.00 0.00 57 1019.7
20190417142015 18 0.0 0.0 0.00 0.00 0.00 59 1019.7
20190417141015 18 0.0 1.6 0.00 0.00 0.00 60 1019.6
20190417140015 17 225 1.6 9.7 0.00 0.00 0.00 60 1019.6
20190417135015 17 0.0 3.2 0.00 0.00 0.00 61 1019.7
20190417134015 16 0.0 6.4 0.00 0.00 0.00 61 1019.6
20190417133015 16 0.0 1.6 0.00 0.00 0.00 64 1019.6
20190417132015 16 0.0 3.2 0.00 0.00 0.00 65 1019.6